Year,Month,Day,Hour,Minute,Value (Times are PST for windgust in km/hr)
2020,11,19,00,00,4.80
2020,11,19,00,01,3.20
2020,11,19,00,02,3.20
2020,11,19,00,03,3.20
2020,11,19,00,04,3.20
2020,11,19,00,05,4.80
2020,11,19,00,07,1.60
2020,11,19,00,09,1.60
2020,11,19,00,10,3.20
2020,11,19,00,11,1.60
2020,11,19,00,14,3.20
2020,11,19,00,15,1.60
2020,11,19,00,27,3.20
2020,11,19,00,28,3.20
2020,11,19,00,29,1.60
2020,11,19,00,32,4.80
2020,11,19,00,33,4.80
2020,11,19,00,34,4.80
2020,11,19,00,36,1.60
2020,11,19,00,37,1.60
2020,11,19,00,42,1.60
2020,11,19,04,55,4.80
2020,11,19,04,56,1.60
2020,11,19,04,58,1.60
2020,11,19,04,59,3.20
2020,11,19,05,00,3.20
2020,11,19,05,02,1.60
2020,11,19,05,03,1.60
2020,11,19,05,04,1.60
2020,11,19,05,05,3.20
2020,11,19,05,06,4.80
2020,11,19,05,07,4.80
2020,11,19,05,08,3.20
2020,11,19,05,11,4.80
2020,11,19,05,12,6.40
2020,11,19,05,13,4.80
2020,11,19,05,14,4.80
2020,11,19,05,15,4.80
2020,11,19,05,16,4.80
2020,11,19,05,17,8.10
2020,11,19,05,18,8.10
2020,11,19,05,19,11.30
2020,11,19,05,20,6.40
2020,11,19,05,21,4.80
2020,11,19,05,22,4.80
2020,11,19,05,23,3.20
2020,11,19,05,24,6.40
2020,11,19,05,25,4.80
2020,11,19,05,26,1.60
2020,11,19,05,27,3.20
2020,11,19,05,28,1.60
2020,11,19,05,29,1.60
2020,11,19,05,32,1.60
2020,11,19,05,33,3.20
2020,11,19,05,34,4.80
2020,11,19,05,35,4.80
2020,11,19,05,36,4.80
2020,11,19,05,37,4.80
2020,11,19,05,38,4.80
2020,11,19,05,39,3.20
2020,11,19,05,40,3.20
2020,11,19,05,41,3.20
2020,11,19,05,42,6.40
2020,11,19,05,43,4.80
2020,11,19,05,44,4.80
2020,11,19,05,45,4.80
2020,11,19,05,46,3.20
2020,11,19,05,50,1.60
2020,11,19,05,51,3.20
2020,11,19,05,52,1.60
2020,11,19,05,55,3.20
2020,11,19,05,56,4.80
2020,11,19,05,57,6.40
2020,11,19,05,58,4.80
2020,11,19,05,59,4.80
2020,11,19,06,00,4.80
2020,11,19,06,01,4.80
2020,11,19,06,02,3.20
2020,11,19,06,03,3.20
2020,11,19,06,04,3.20
2020,11,19,06,05,3.20
2020,11,19,06,06,3.20
2020,11,19,06,07,3.20
2020,11,19,06,08,4.80
2020,11,19,06,09,4.80
2020,11,19,06,10,3.20
2020,11,19,06,11,3.20
2020,11,19,06,12,3.20
2020,11,19,06,13,3.20
2020,11,19,06,14,3.20
2020,11,19,06,15,3.20
2020,11,19,06,40,6.40
2020,11,19,06,41,8.10
2020,11,19,06,42,8.10
2020,11,19,06,43,9.60
2020,11,19,06,44,4.80
2020,11,19,06,45,6.40
2020,11,19,06,46,4.80
2020,11,19,06,47,8.10
2020,11,19,06,48,8.10
2020,11,19,06,49,8.10
2020,11,19,06,50,9.60
2020,11,19,06,51,6.40
2020,11,19,06,52,8.10
2020,11,19,06,53,1.60
2020,11,19,06,54,3.20
2020,11,19,06,55,4.80
2020,11,19,06,56,4.80
2020,11,19,07,01,4.80
2020,11,19,07,02,4.80
2020,11,19,07,03,4.80
2020,11,19,07,04,3.20
2020,11,19,07,05,1.60
2020,11,19,07,06,1.60
2020,11,19,07,07,3.20
2020,11,19,07,39,1.60
2020,11,19,08,04,4.80
2020,11,19,08,05,4.80
2020,11,19,08,11,6.40
2020,11,19,08,12,3.20
2020,11,19,08,15,1.60
2020,11,19,08,16,3.20
2020,11,19,08,17,3.20
2020,11,19,08,18,3.20
2020,11,19,08,19,1.60
2020,11,19,08,25,3.20
2020,11,19,08,26,4.80
2020,11,19,08,27,3.20
2020,11,19,08,28,3.20
2020,11,19,08,29,3.20
2020,11,19,08,30,1.60
2020,11,19,08,31,1.60
2020,11,19,08,32,3.20
2020,11,19,08,33,4.80
2020,11,19,08,34,4.80
2020,11,19,08,35,3.20
2020,11,19,08,36,3.20
2020,11,19,08,37,3.20
2020,11,19,08,38,3.20
2020,11,19,08,40,1.60
2020,11,19,09,20,4.80
2020,11,19,09,21,8.10
2020,11,19,09,22,8.10
2020,11,19,09,23,6.40
2020,11,19,09,24,6.40
2020,11,19,09,25,3.20
2020,11,19,09,26,6.40
2020,11,19,09,27,6.40
2020,11,19,09,28,1.60
2020,11,19,09,39,3.20
2020,11,19,09,40,6.40
2020,11,19,09,41,8.10
2020,11,19,09,42,8.10
2020,11,19,09,43,8.10
2020,11,19,09,44,8.10
2020,11,19,09,45,6.40
2020,11,19,09,46,4.80
2020,11,19,09,47,4.80
2020,11,19,09,48,3.20
2020,11,19,09,49,3.20
2020,11,19,09,51,1.60
2020,11,19,09,52,4.80
2020,11,19,09,53,4.80
2020,11,19,09,59,6.40
2020,11,19,10,00,4.80
2020,11,19,10,01,4.80
2020,11,19,10,04,1.60
2020,11,19,10,10,6.40
2020,11,19,10,11,4.80
2020,11,19,10,12,3.20
2020,11,19,10,23,4.80
2020,11,19,10,24,12.90
2020,11,19,10,25,4.80
2020,11,19,10,26,4.80
2020,11,19,10,27,3.20
2020,11,19,10,28,4.80
2020,11,19,10,29,4.80
2020,11,19,10,30,8.10
2020,11,19,10,31,6.40
2020,11,19,10,32,9.60
2020,11,19,10,33,8.10
2020,11,19,10,34,8.10
2020,11,19,10,35,6.40
2020,11,19,10,36,8.10
2020,11,19,10,37,11.30
2020,11,19,10,38,4.80
2020,11,19,10,39,6.40
2020,11,19,10,40,3.20
2020,11,19,10,41,8.10
2020,11,19,10,42,9.60
2020,11,19,10,43,11.30
2020,11,19,10,44,3.20
2020,11,19,10,45,11.30
2020,11,19,10,46,11.30
2020,11,19,10,47,9.60
2020,11,19,10,48,9.60
2020,11,19,10,49,9.60
2020,11,19,10,50,8.10
2020,11,19,10,51,4.80
2020,11,19,10,52,9.60
2020,11,19,10,53,9.60
2020,11,19,10,54,11.30
2020,11,19,10,55,4.80
2020,11,19,10,56,11.30
2020,11,19,10,57,11.30
2020,11,19,10,58,6.40
2020,11,19,10,59,3.20
2020,11,19,11,00,4.80
2020,11,19,11,01,4.80
2020,11,19,11,02,4.80
2020,11,19,11,03,3.20
2020,11,19,11,04,11.30
2020,11,19,11,05,11.30
2020,11,19,11,06,9.60
2020,11,19,11,07,11.30
2020,11,19,11,08,9.60
2020,11,19,11,09,4.80
2020,11,19,11,10,4.80
2020,11,19,11,11,12.90
2020,11,19,11,12,11.30
2020,11,19,11,13,3.20
2020,11,19,11,14,6.40
2020,11,19,11,15,8.10
2020,11,19,11,16,6.40
2020,11,19,11,17,4.80
2020,11,19,11,18,6.40
2020,11,19,11,19,6.40
2020,11,19,11,20,6.40
2020,11,19,11,21,6.40
2020,11,19,11,22,4.80
2020,11,19,11,23,12.90
2020,11,19,11,24,9.60
2020,11,19,11,25,6.40
2020,11,19,11,26,14.50
2020,11,19,11,27,11.30
2020,11,19,11,28,6.40
2020,11,19,11,29,4.80
2020,11,19,11,30,11.30
2020,11,19,11,31,6.40
2020,11,19,11,32,12.90
2020,11,19,11,33,9.60
2020,11,19,11,34,3.20
2020,11,19,11,35,6.40
2020,11,19,11,36,3.20
2020,11,19,11,37,3.20
2020,11,19,11,38,3.20
2020,11,19,11,39,3.20
2020,11,19,11,40,14.50
2020,11,19,11,41,16.10
2020,11,19,11,42,6.40
2020,11,19,11,43,11.30
2020,11,19,11,44,8.10
2020,11,19,11,45,8.10
2020,11,19,11,46,6.40
2020,11,19,11,49,3.20
2020,11,19,11,50,14.50
2020,11,19,11,51,4.80
2020,11,19,11,52,4.80
2020,11,19,11,53,9.60
2020,11,19,11,54,4.80
2020,11,19,11,55,6.40
2020,11,19,11,56,3.20
2020,11,19,11,57,8.10
2020,11,19,11,58,9.60
2020,11,19,11,59,3.20
2020,11,19,12,01,8.10
2020,11,19,12,02,11.30
2020,11,19,12,03,9.60
2020,11,19,12,04,9.60
2020,11,19,12,05,8.10
2020,11,19,12,06,6.40
2020,11,19,12,07,8.10
2020,11,19,12,08,12.90
2020,11,19,12,09,9.60
2020,11,19,12,10,11.30
2020,11,19,12,11,4.80
2020,11,19,12,12,8.10
2020,11,19,12,13,6.40
2020,11,19,12,14,11.30
2020,11,19,12,15,6.40
2020,11,19,12,16,11.30
2020,11,19,12,17,8.10
2020,11,19,12,18,11.30
2020,11,19,12,19,12.90
2020,11,19,12,20,11.30
2020,11,19,12,21,16.10
2020,11,19,12,22,11.30
2020,11,19,12,23,12.90
2020,11,19,12,24,19.30
2020,11,19,12,25,16.10
2020,11,19,12,26,14.50
2020,11,19,12,27,11.30
2020,11,19,12,28,17.70
2020,11,19,12,29,11.30
2020,11,19,12,30,11.30
2020,11,19,12,31,17.70
2020,11,19,12,32,11.30
2020,11,19,12,33,11.30
2020,11,19,12,34,14.50
2020,11,19,12,35,22.50
2020,11,19,12,36,16.10
2020,11,19,12,37,16.10
2020,11,19,12,38,9.60
2020,11,19,12,39,9.60
2020,11,19,12,40,17.70
2020,11,19,12,41,11.30
2020,11,19,12,42,9.60
2020,11,19,12,43,11.30
2020,11,19,12,44,14.50
2020,11,19,12,45,17.70
2020,11,19,12,46,12.90
2020,11,19,12,47,14.50
2020,11,19,12,48,16.10
2020,11,19,12,49,16.10
2020,11,19,12,50,20.90
2020,11,19,12,51,17.70
2020,11,19,12,52,12.90
2020,11,19,12,53,12.90
2020,11,19,12,54,17.70
2020,11,19,12,55,19.30
2020,11,19,12,56,11.30
2020,11,19,12,57,20.90
2020,11,19,12,58,19.30
2020,11,19,12,59,11.30
2020,11,19,13,00,20.90
2020,11,19,13,01,17.70
2020,11,19,13,02,22.50
2020,11,19,13,03,16.10
2020,11,19,13,04,16.10
2020,11,19,13,05,14.50
2020,11,19,13,06,20.90
2020,11,19,13,07,17.70
2020,11,19,13,08,12.90
2020,11,19,13,09,17.70
2020,11,19,13,10,16.10
2020,11,19,13,11,22.50
2020,11,19,13,12,17.70
2020,11,19,13,13,14.50
2020,11,19,13,14,14.50
2020,11,19,13,15,19.30
2020,11,19,13,16,16.10
2020,11,19,13,17,11.30
2020,11,19,13,18,19.30
2020,11,19,13,19,17.70
2020,11,19,13,20,16.10
2020,11,19,13,21,9.60
2020,11,19,13,22,8.10
2020,11,19,13,23,16.10
2020,11,19,13,24,12.90
2020,11,19,13,25,20.90
2020,11,19,13,26,8.10
2020,11,19,13,27,12.90
2020,11,19,13,28,16.10
2020,11,19,13,29,20.90
2020,11,19,13,30,14.50
2020,11,19,13,31,8.10
2020,11,19,13,32,16.10
2020,11,19,13,33,14.50
2020,11,19,13,34,27.40
2020,11,19,13,35,16.10
2020,11,19,13,36,17.70
2020,11,19,13,37,19.30
2020,11,19,13,38,16.10
2020,11,19,13,39,17.70
2020,11,19,13,40,14.50
2020,11,19,13,41,9.60
2020,11,19,13,42,12.90
2020,11,19,13,43,16.10
2020,11,19,13,44,17.70
2020,11,19,13,45,14.50
2020,11,19,13,46,14.50
2020,11,19,13,47,16.10
2020,11,19,13,48,22.50
2020,11,19,13,49,20.90
2020,11,19,13,50,19.30
2020,11,19,13,51,16.10
2020,11,19,13,52,27.40
2020,11,19,13,53,19.30
2020,11,19,13,54,11.30
2020,11,19,13,55,17.70
2020,11,19,13,56,24.20
2020,11,19,13,57,9.60
2020,11,19,13,58,9.60
2020,11,19,13,59,22.50
2020,11,19,14,00,24.20
2020,11,19,14,01,8.10
2020,11,19,14,02,17.70
2020,11,19,14,03,20.90
2020,11,19,14,04,17.70
2020,11,19,14,05,12.90
2020,11,19,14,06,9.60
2020,11,19,14,07,16.10
2020,11,19,14,08,17.70
2020,11,19,14,09,22.50
2020,11,19,14,10,17.70
2020,11,19,14,11,17.70
2020,11,19,14,12,16.10
2020,11,19,14,13,12.90
2020,11,19,14,14,11.30
2020,11,19,14,15,14.50
2020,11,19,14,16,12.90
2020,11,19,14,17,20.90
2020,11,19,14,18,17.70
2020,11,19,14,19,14.50
2020,11,19,14,20,20.90
2020,11,19,14,21,12.90
2020,11,19,14,22,25.70
2020,11,19,14,23,19.30
2020,11,19,14,24,12.90
2020,11,19,14,25,16.10
2020,11,19,14,26,17.70
2020,11,19,14,27,12.90
2020,11,19,14,28,4.80
2020,11,19,14,29,14.50
2020,11,19,14,30,14.50
2020,11,19,14,31,16.10
2020,11,19,14,32,14.50
2020,11,19,14,33,14.50
2020,11,19,14,34,9.60
2020,11,19,14,35,6.40
2020,11,19,14,36,8.10
2020,11,19,14,37,14.50
2020,11,19,14,38,14.50
2020,11,19,14,39,14.50
2020,11,19,14,40,9.60
2020,11,19,14,41,14.50
2020,11,19,14,42,12.90
2020,11,19,14,43,6.40
2020,11,19,14,44,16.10
2020,11,19,14,45,17.70
2020,11,19,14,46,17.70
2020,11,19,14,47,17.70
2020,11,19,14,48,11.30
2020,11,19,14,49,11.30
2020,11,19,14,50,9.60
2020,11,19,14,51,11.30
2020,11,19,14,52,9.60
2020,11,19,14,53,14.50
2020,11,19,14,54,16.10
2020,11,19,14,55,8.10
2020,11,19,14,56,19.30
2020,11,19,14,57,9.60
2020,11,19,14,58,14.50
2020,11,19,14,59,16.10
2020,11,19,15,00,9.60
2020,11,19,15,01,19.30
2020,11,19,15,02,14.50
2020,11,19,15,03,14.50
2020,11,19,15,04,16.10
2020,11,19,15,05,12.90
2020,11,19,15,06,12.90
2020,11,19,15,07,14.50
2020,11,19,15,08,11.30
2020,11,19,15,09,12.90
2020,11,19,15,10,12.90
2020,11,19,15,11,14.50
2020,11,19,15,12,11.30
2020,11,19,15,13,9.60
2020,11,19,15,14,16.10
2020,11,19,15,15,17.70
2020,11,19,15,16,20.90
2020,11,19,15,17,19.30
2020,11,19,15,18,8.10
2020,11,19,15,19,12.90
2020,11,19,15,20,12.90
2020,11,19,15,21,4.80
2020,11,19,15,22,19.30
2020,11,19,15,23,16.10
2020,11,19,15,24,12.90
2020,11,19,15,25,11.30
2020,11,19,15,26,6.40
2020,11,19,15,27,9.60
2020,11,19,15,28,12.90
2020,11,19,15,29,14.50
2020,11,19,15,30,11.30
2020,11,19,15,31,4.80
2020,11,19,15,32,16.10
2020,11,19,15,33,14.50
2020,11,19,15,34,8.10
2020,11,19,15,35,12.90
2020,11,19,15,36,11.30
2020,11,19,15,37,6.40
2020,11,19,15,38,6.40
2020,11,19,15,39,16.10
2020,11,19,15,40,9.60
2020,11,19,15,41,8.10
2020,11,19,15,42,16.10
2020,11,19,15,43,9.60
2020,11,19,15,44,12.90
2020,11,19,15,45,9.60
2020,11,19,15,46,9.60
2020,11,19,15,47,11.30
2020,11,19,15,48,14.50
2020,11,19,15,49,6.40
2020,11,19,15,50,14.50
2020,11,19,15,51,12.90
2020,11,19,15,52,11.30
2020,11,19,15,53,9.60
2020,11,19,15,54,9.60
2020,11,19,15,55,9.60
2020,11,19,15,56,11.30
2020,11,19,15,57,9.60
2020,11,19,15,58,11.30
2020,11,19,15,59,12.90
2020,11,19,16,00,11.30
2020,11,19,16,01,11.30
2020,11,19,16,02,14.50
2020,11,19,16,03,6.40
2020,11,19,16,04,4.80
2020,11,19,16,05,11.30
2020,11,19,16,06,8.10
2020,11,19,16,07,11.30
2020,11,19,16,08,6.40
2020,11,19,16,09,4.80
2020,11,19,16,10,11.30
2020,11,19,16,11,14.50
2020,11,19,16,12,3.20
2020,11,19,16,13,3.20
2020,11,19,16,14,11.30
2020,11,19,16,15,14.50
2020,11,19,16,16,11.30
2020,11,19,16,17,6.40
2020,11,19,16,18,9.60
2020,11,19,16,19,8.10
2020,11,19,16,20,4.80
2020,11,19,16,21,9.60
2020,11,19,16,22,6.40
2020,11,19,16,23,12.90
2020,11,19,16,24,4.80
2020,11,19,16,25,9.60
2020,11,19,16,26,6.40
2020,11,19,16,27,9.60
2020,11,19,16,28,6.40
2020,11,19,16,29,6.40
2020,11,19,16,30,3.20
2020,11,19,16,31,11.30
2020,11,19,16,32,6.40
2020,11,19,16,33,3.20
2020,11,19,16,35,4.80
2020,11,19,16,36,8.10
2020,11,19,16,37,6.40
2020,11,19,16,38,11.30
2020,11,19,16,39,16.10
2020,11,19,16,40,12.90
2020,11,19,16,41,12.90
2020,11,19,16,42,3.20
2020,11,19,16,43,1.60
2020,11,19,16,44,4.80
2020,11,19,16,45,4.80
2020,11,19,16,46,3.20
2020,11,19,16,47,3.20
2020,11,19,16,48,4.80
2020,11,19,16,49,1.60
2020,11,19,17,35,4.80
2020,11,19,17,36,1.60
2020,11,19,17,38,3.20
2020,11,19,17,39,3.20
2020,11,19,17,42,4.80
2020,11,19,17,43,1.60
2020,11,19,17,44,3.20
2020,11,19,17,45,3.20
2020,11,19,17,46,6.40
2020,11,19,17,47,1.60
2020,11,19,18,16,3.20
2020,11,19,18,17,6.40
2020,11,19,18,18,1.60
2020,11,19,18,19,3.20
2020,11,19,18,20,3.20
2020,11,19,18,21,6.40
2020,11,19,18,22,3.20
2020,11,19,18,23,3.20
2020,11,19,18,24,3.20
2020,11,19,18,25,3.20
2020,11,19,18,32,3.20
2020,11,19,18,36,1.60
2020,11,19,21,02,4.80
2020,11,19,21,03,3.20
2020,11,19,21,04,3.20
2020,11,19,21,05,1.60
2020,11,19,21,14,4.80
2020,11,19,21,15,4.80
2020,11,19,21,16,3.20
2020,11,19,21,17,3.20
2020,11,19,21,18,1.60
2020,11,19,21,39,4.80
2020,11,19,21,40,4.80
2020,11,19,21,41,3.20
2020,11,19,21,42,3.20
2020,11,19,23,42,4.80
2020,11,19,23,43,4.80
